Location: Godiavel Galaoual
(15.2485°N, 12.6604°W)
Time: 00:53:12
(UTC+00:00)

Transit 4A - Pass Details

Date: 20 June 2021
Orbit: 872 x 972 km, 66.8° (Epoch: 29 July)

Event Time Altitude Azimuth Distance (km) Brightness Sun altitude
Rises 20:34:02 0° 330° (NNW) 3,463 12.0 -16.0°
Reaches altitude 10° 20:36:33 10° 325° (NW) 2,532 11.2 -16.5°
Maximum altitude 20:42:12 51° 251° (WSW) 1,114 8.5 -17.7°
Enters shadow 20:47:42 11° 177° (S) 2,493 9.8 -18.8°
Drops below altitude 10° 20:47:57 10° 177° (S) 2,584 - -18.8°
Sets 20:50:34 0° 172° (S) 3,541 - -19.4°
